Weather History for Sheridan, WY

Change the Weather History Date:

Wednesday, November 16, 2011

  Actual Average Record
Temperature  
Mean Temperature 19 °F 32 °F  
Max Temperature 30 °F 46 °F 68 °F (1953)
Min Temperature 8 °F 19 °F -25 °F (1959)
Degree Days  
Heating Degree Days 46 33  
Month to date heating degree days 494 464  
Since 1 July heating degree days 1111 1372  
Cooling Degree Days 0 0  
Month to date cooling degree days 0 0  
Year to date cooling degree days 511 419  
Moisture  
Dew Point 8 °F    
Average Humidity 57    
Maximum Humidity 81    
Minimum Humidity 33    
Precipitation  
Precipitation T in 0.03 in 0.50 in (1969)
Month to date precipitation 0.46 0.41  
Year to date precipitation 17.50 13.30  
Sea Level Pressure  
Sea Level Pressure 30.27 in    
Wind  
Wind Speed 7 mph (SW)    
Max Wind Speed 29 mph    
Max Gust Speed 35 mph    
Visibility 9 miles    
Events Snow    
T = Trace of Precipitation, MM = Missing Value Source: NWS Daily Summary

Daily Weather History Graph

Daily Weather History Graph

Search for Another Location

Airport:

Trip Planner

Search our weather history database for the weather conditions in past years. The results will help you decide how hot, cold, wet, or windy it might be!

Date:

Astronomy

Nov. 16, 2011 Rise Set
Actual Time 7:05 AM MST 4:38 PM MST
Civil Twilight 6:34 AM MST 5:10 PM MST
Nautical Twilight 5:58 AM MST 5:46 PM MST
Astronomical Twilight 5:24 AM MST 6:20 PM MST
Moon 9:58 PM MST (11/16) 11:42 AM MST (11/16)
Length of Visible Light 10h 36m
Length of Day
9h 32m
Waning Gibbous, 69% of the Moon is Illuminated
Nov 16
Waning Gibbous
Nov 18
Last Quarter
Nov 24
New
Dec 2
First Quarter
Dec 10
Full

Hourly Weather History & Observations

Time (MST) Temp. Windchill Dew Point Humidity Pressure Visibility Wind Dir Wind Speed Gust Speed Precip Events Conditions
12:53 AM 24.1 °F 14.4 °F 14.0 °F 65% 30.20 in 10.0 mi West 9.2 mph - N/A   Overcast
1:53 AM 25.0 °F 13.6 °F 10.9 °F 55% 30.20 in 10.0 mi WNW 12.7 mph - N/A   Overcast
2:53 AM 24.8 °F 10.7 °F 12.2 °F 59% 30.11 in 10.0 mi NW 19.6 mph - N/A   Overcast
3:42 AM 21.2 °F 4.5 °F 17.6 °F 86% 30.14 in 1.8 mi NW 24.2 mph 34.5 mph 0.00 in Snow Light Snow
3:53 AM 21.9 °F 5.8 °F 17.1 °F 82% 30.28 in 2.5 mi NW 23.0 mph 28.8 mph 0.00 in Snow Light Snow
4:02 AM 21.2 °F - 17.6 °F 86% 30.14 in - North - - 0.00 in   Overcast
4:34 AM 21.2 °F 4.9 °F 15.8 °F 80% 30.17 in 9.0 mi NNW 23.0 mph - 0.00 in Snow Light Snow
4:48 AM 21.2 °F 7.3 °F 15.8 °F 80% 30.18 in 9.0 mi NW 16.1 mph 24.2 mph 0.00 in Snow Light Snow
4:53 AM 21.0 °F 7.6 °F 14.0 °F 74% 30.32 in 9.0 mi NW 15.0 mph - 0.00 in   Scattered Clouds
5:53 AM 15.1 °F 7.7 °F 7.0 °F 70% 30.35 in 10.0 mi WNW 4.6 mph - N/A   Clear
6:53 AM 12.0 °F -0.4 °F 1.9 °F 64% 30.37 in 10.0 mi West 9.2 mph - 0.00 in Snow Light Snow
7:53 AM 12.0 °F 5.9 °F 1.9 °F 64% 30.39 in 9.0 mi SE 3.5 mph - 0.00 in Snow Light Snow
8:53 AM 17.1 °F 7.6 °F 3.9 °F 56% 30.38 in 9.0 mi South 6.9 mph - 0.00 in Snow Light Snow
9:53 AM 21.0 °F 11.4 °F 6.1 °F 53% 30.38 in 9.0 mi South 8.1 mph - 0.00 in Snow Light Snow
10:53 AM 27.0 °F 20.5 °F 1.9 °F 34% 30.35 in 10.0 mi SSE 5.8 mph - 0.00 in Snow Light Snow
11:53 AM 28.0 °F 18.6 °F 5.0 °F 38% 30.33 in 9.0 mi SSE 10.4 mph - 0.00 in Snow Light Snow
12:53 PM 28.9 °F 22.8 °F 8.1 °F 41% 30.31 in 9.0 mi South 5.8 mph - 0.00 in Snow Light Snow
1:53 PM 30.0 °F 24.1 °F 8.1 °F 40% 30.29 in 9.0 mi SSE 5.8 mph - 0.00 in Snow Light Snow
2:53 PM 28.0 °F 20.8 °F 9.0 °F 45% 30.29 in 9.0 mi SSE 6.9 mph - 0.00 in Snow Light Snow
3:53 PM 24.1 °F 18.2 °F 9.0 °F 53% 30.30 in 9.0 mi SSW 4.6 mph - 0.00 in Snow Light Snow
4:53 PM 17.6 °F - 6.8 °F 63% 30.15 in 9.0 mi Calm Calm - N/A Snow Light Snow
5:53 PM 17.1 °F - 1.9 °F 52% 30.33 in 9.0 mi Calm Calm - 0.00 in Snow Light Snow
6:53 PM 12.0 °F 5.9 °F 1.9 °F 64% 30.35 in 10.0 mi South 3.5 mph - 0.00 in   Clear
7:53 PM 10.9 °F - 1.0 °F 64% 30.34 in 9.0 mi Calm Calm - 0.00 in   Clear
8:53 PM 10.9 °F 2.9 °F 1.0 °F 64% 30.32 in 10.0 mi South 4.6 mph - N/A   Clear
9:53 PM 10.9 °F 1.4 °F 1.0 °F 64% 30.28 in 10.0 mi South 5.8 mph - N/A   Clear
10:53 PM 17.1 °F - 3.0 °F 54% 30.19 in 10.0 mi Calm Calm - N/A   Clear
11:53 PM 15.1 °F 7.7 °F 3.0 °F 59% 30.17 in 9.0 mi NNW 4.6 mph - 0.00 in   Clear